Regional Weather Roundup
Issued by NWS Sioux Falls, SD

Home | Current Version | Previous Version | Graphics & Text | Print | Product List | Glossary On
Versions: 1 2 3 4 5 6 7 8 9 10 11 12 13 14 15 16 17 18 19 20 21 22 23 24 25 26 27 28 29 30 31 32 33 34 35 36 37 38 39 40 41 42 43 44 45 46 47 48 49 50
000
ASUS43 KFSD 161002
RWRFSD

WEATHER ROUNDUP FOR SE SOUTH DAKOTA/SW MINNESOTA/NW IOWA
NATIONAL WEATHER SERVICE SIOUX FALLS SD
500 AM CDT TUE SEP 16 2014

NOTE: "FAIR" INDICATES FEW OR NO CLOUDS BELOW 12,000 FEET WITH NO
SIGNIFICANT WEATHER AND OR OBSTRUCTIONS TO VISIBILITY.


SDZ038>040-050-052>070-161100-
SOUTHEAST SOUTH DAKOTA

CITY           SKY/WX    TMP DP  RH WIND       PRES   REMARKS
CHAMBERLAIN    CLEAR     43  40  89 SE8       30.12F
HURON          CLEAR     41  36  82 SE5       30.16F
MADISON        FAIR      39  39 100 S6        30.20S
MITCHELL       CLEAR     44  40  85 S7        30.19F
SIOUX FALLS    CLEAR     42  39  89 CALM      30.21S
WINNER         FAIR      52  41  66 S21G28    30.10F
YANKTON        CLEAR     43  39  87 S3        30.21F
$$

MNZ071-072-080-081-089-090-097-098-161100-
SOUTHWEST MINNESOTA

CITY           SKY/WX    TMP DP  RH WIND       PRES   REMARKS
FAIRMONT       CLEAR     45  36  70 SW6       30.22F
JACKSON        CLEAR     41  37  87 SW3       30.22F
LUVERNE        FOG       37  36  93 CALM      30.22F VSB 1/4
MARSHALL       CLEAR     41  36  81 SW9       30.18F
MONTEVIDEO     CLEAR     41  36  81 SW6       30.19S
PIPESTONE      CLEAR     41  36  81 S3        30.20F HAZE
REDWOOD FALLS  CLEAR     42  37  82 SW8       30.19F
TRACY          CLEAR     44  40  86 SW8       30.20F
WINDOM         CLEAR     37  36  93 CALM      30.22S
WORTHINGTON    CLEAR     39  37  93 SW3       30.23S
$$

IAZ001>003-012>014-020>022-031-032-NEZ013-014-SDZ071-161100-
NORTHWEST IOWA

CITY           SKY/WX    TMP DP  RH WIND       PRES   REMARKS
CHEROKEE       CLEAR     37  37 100 CALM      30.24F
DENISON        CLEAR     37  37 100 CALM      30.24S
ESTHERVILLE    CLEAR     37  36  96 S3        30.22F
LE MARS          N/A     37  37 100 CALM      30.23F
ORANGE CITY    CLEAR     43  37  81 S3        30.22F
SHELDON        CLEAR     36  36 100 CALM      30.21F
SIOUX CITY     FOG       39  38  96 SE5       30.24F VSB 1/2
SPENCER        CLEAR     37  35  92 CALM      30.23F
STORM LAKE     CLEAR     43  43 100 SW6       30.24S
$$

ABBREVIATIONS USED IN REMARKS
   TC - TEMPERATURE IN CELSIUS
  WCI - WIND CHILL INDEX
   HX - HEAT INDEX
  VSB - VISIBILITY




USA.gov is the U.S. government's official web portal to all federal, state and local government web resources and services.